GW5292 Weather Reports


Display with metric or nautical units.
time (UTC)temp
F
wind
direction
speed
MPH
gust
MPH
rain 1hr
in
rain 24hr
in
rain mn
in
humidity
%
barometer
mb
20260502163023 57 24 1.0 4.0 0.00 0.05 0.05 51 1013.3
20260502161527 57 214 2.0 4.0 0.00 0.05 0.05 48 1013.3
20260502151525 54 30 1.0 6.0 0.00 0.05 0.05 54 1013.5
20260502123018 47 17 2.0 3.0 0.00 0.05 0.05 74 1013.8
20260502121503 46 11 1.0 3.0 0.00 0.05 0.05 76 1013.6
20260502114503 46 14 3.0 5.0 0.00 0.05 0.05 79 1013.6
20260502113013 45 19 1.0 5.0 0.00 0.05 0.05 83 1013.5
20260502111513 45 24 0.0 2.0 0.00 0.05 0.05 90 1013.2
20260502110003 45 218 0.0 1.0 0.00 0.05 0.05 90 1013.2
20260502104518 45 221 0.0 2.0 0.00 0.05 0.05 90 1013.0
20260502103010 45 180 0.0 2.0 0.00 0.05 0.05 90 1012.7
20260502101514 45 182 0.0 2.0 0.00 0.05 0.05 91 1012.6
20260502091515 45 190 0.0 0.0 0.00 0.05 0.05 94 1011.7
20260502071505 48 190 0.0 0.0 0.03 0.05 0.05 92 1011.6
20260502070013 48 190 0.0 0.0 0.04 0.05 0.05 92 1011.6
20260502064507 48 190 0.0 0.0 0.03 0.04 0.04 91 1011.8
20260502063002 48 190 0.0 0.0 0.04 0.04 0.04 89 1012.0
20260502061501 49 190 0.0 0.0 0.02 0.02 0.02 88 1012.2
20260502060006 49 190 0.0 0.0 0.01 0.01 0.01 88 1012.5
20260502054518 50 190 0.0 1.0 0.01 0.01 0.01 85 1012.5
20260502053003 50 190 0.0 0.0 0.00 0.00 0.00 83 1012.5
20260502051503 50 190 0.0 0.0 0.00 0.00 0.00 83 1012.5
20260502050006 50 244 0.0 2.0 0.00 0.00 0.00 84 1012.5
20260502044510 50 244 0.0 2.0 0.00 0.00 0.00 84 1012.6
20260502043016 50 248 0.0 2.0 0.00 0.00 0.00 86 1012.7
20260502041503 49 12 0.0 0.0 0.00 0.00 0.00 88 1012.2
20260502040003 49 12 0.0 0.0 0.00 0.00 0.00 89 1012.3
20260502034508 49 12 0.0 2.0 0.00 0.00 0.00 89 1012.1
20260502033014 49 12 0.0 0.0 0.00 0.00 0.00 88 1011.8
20260502031517 49 12 0.0 0.0 0.00 0.00 0.00 87 1011.6
20260502030003 49 12 0.0 0.0 0.00 0.00 0.00 85 1011.6
20260502024505 49 12 0.0 0.0 0.00 0.00 0.00 84 1011.6
20260502023010 50 12 0.0 2.0 0.00 0.00 0.00 82 1011.7
20260502021514 50 12 0.0 0.0 0.00 0.00 0.00 82 1011.6
20260502020018 50 12 0.0 0.0 0.00 0.00 0.00 82 1012.0
20260502014507 50 12 0.0 0.0 0.00 0.00 0.00 81 1011.8
20260502013008 51 12 0.0 0.0 0.00 0.00 0.00 80 1011.6
20260502011511 51 12 0.0 0.0 0.00 0.00 0.00 79 1011.7
20260502010018 52 12 0.0 0.0 0.00 0.00 0.00 75 1011.6
20260502004522 53 12 0.0 0.0 0.00 0.00 0.00 73 1011.7
20260502003016 54 12 0.0 2.0 0.00 0.00 0.00 70 1011.5
20260502001508 55 9 2.0 4.0 0.00 0.00 0.00 67 1011.6
20260502000015 58 50 0.0 6.0 0.00 0.00 0.00 60 1011.3
20260501234524 59 213 1.0 2.0 0.00 0.00 0.00 52 1010.8
20260501233023 59 211 1.0 4.0 0.00 0.00 0.00 50 1010.5
20260501231510 60 219 2.0 5.0 0.00 0.00 0.00 48 1010.3
20260501230012 60 208 2.0 4.0 0.00 0.00 0.00 48 1010.1
20260501224516 60 221 2.0 8.0 0.00 0.00 0.00 44 1009.9
20260501223021 61 150 3.0 7.0 0.00 0.00 0.00 43 1010.0
20260501221525 62 177 2.0 7.0 0.00 0.00 0.00 44 1009.9
20260501220008 61 211 3.0 7.0 0.00 0.00 0.00 44 1010.0
20260501214521 61 214 2.0 4.0 0.00 0.00 0.00 45 1010.3
20260501213002 62 198 1.0 8.0 0.00 0.01 0.00 43 1010.2
20260501211506 62 229 1.0 7.0 0.00 0.01 0.00 43 1010.2
20260501210003 61 223 4.0 6.0 0.00 0.01 0.00 44 1010.3
20260501204503 62 192 2.0 7.0 0.00 0.01 0.00 44 1010.5
20260501203002 62 202 3.0 8.0 0.00 0.01 0.00 43 1010.7
20260501201503 62 209 3.0 8.0 0.00 0.01 0.00 43 1010.7
20260501200009 62 213 3.0 4.0 0.00 0.01 0.00 41 1010.9
20260501194503 61 200 6.0 10.0 0.00 0.01 0.00 41 1011.0
20260501193003 61 215 2.0 6.0 0.00 0.01 0.00 43 1011.1
20260501191503 61 214 3.0 5.0 0.00 0.01 0.00 42 1011.2
20260501190004 60 217 3.0 7.0 0.00 0.01 0.00 41 1011.3
20260501184504 61 207 3.0 7.0 0.00 0.01 0.00 47 1011.5
20260501183004 61 228 2.0 6.0 0.00 0.01 0.00 45 1011.6
20260501181503 61 227 2.0 5.0 0.00 0.01 0.00 44 1011.7
20260501180004 61 173 2.0 4.0 0.00 0.01 0.00 43 1011.6
20260501174508 61 294 0.0 3.0 0.00 0.01 0.00 41 1012.0
20260501173005 60 225 4.0 6.0 0.00 0.01 0.00 42 1012.1
20260501171504 60 194 4.0 7.0 0.00 0.01 0.00 46 1012.3